Redmond, OR

1:08 AM PST on November 14, 2019 (GMT -0800)
Roberts Field Airport

Weather History for KRDM - September, 2019

Change the Weather History Date:

Saturday, September 21, 2019

  Actual Average Record
Temperature  
Mean Temperature 57 °F 56 °F  
Max Temperature 75 °F 75 °F 96 °F (1967)
Min Temperature 38 °F 37 °F 23 °F (1983)
Degree Days  
Heating Degree Days 8 10  
Month to date heating degree days 100 150  
Since 1 July heating degree days 147 299  
Cooling Degree Days 0 0  
Month to date cooling degree days 37 14  
Year to date cooling degree days 293 220  
Growing Degree Days 6 (Base 50)    
Moisture  
Dew Point 40 °F    
Average Humidity 60    
Maximum Humidity 92    
Minimum Humidity 27    
Precipitation  
Precipitation 0.00 in 0.01 in 0.12 in (1953)
Month to date precipitation 1.21 0.28  
Year to date precipitation 8.67 6.01  
Sea Level Pressure  
Sea Level Pressure 30.09 in    
Wind  
Wind Speed 4 mph (SE)    
Max Wind Speed 9 mph    
Max Gust Speed 12 mph    
Visibility 10 miles    
Events      
T = Trace of Precipitation, MM = Missing Value Source: NWS Daily Summary

Daily Weather History Graph

Daily Weather History Graph

Search for Another Location

Airport or City:

Astronomy

Sep. 21, 2019 Rise Set
Actual Time 6:50 AM PDT 7:04 PM PDT
Civil Twilight 6:21 AM PDT 7:33 PM PDT
Nautical Twilight 5:47 AM PDT 8:06 PM PDT
Astronomical Twilight 5:12 AM PDT 8:41 PM PDT
Moon 11:31 PM PDT (9/21) 2:16 PM PDT (9/21)
Length of Visible Light 13h 11m
Length of Day
12h 13m
Waning Gibbous, 53% of the Moon is Illuminated
Sep 21
Waning Gibbous
Sep 21
Last Quarter
Sep 28
New
Oct 5
First Quarter
Oct 13
Full

Hourly Weather History & Observations

Time (PDT) Temp. Windchill Dew Point Humidity Pressure Visibility Wind Dir Wind Speed Gust Speed Precip Events Conditions
12:56 AM 46.0 °F 42.5 °F 41.0 °F 83% 30.15 in 10.0 mi South 6.9 mph - N/A   Clear
2:56 AM 43.0 °F 39.5 °F 39.0 °F 86% 30.15 in 10.0 mi SSE 5.8 mph - N/A   Clear
3:56 AM 41.0 °F 38.0 °F 37.9 °F 89% 30.15 in 10.0 mi South 4.6 mph - N/A   Clear
4:56 AM 39.9 °F 36.7 °F 37.0 °F 89% 30.16 in 10.0 mi SSE 4.6 mph - N/A   Clear
5:56 AM 39.9 °F 35.8 °F 37.0 °F 89% 30.17 in 10.0 mi SE 5.8 mph - N/A   Clear
6:56 AM 39.9 °F - 36.0 °F 86% 30.17 in 10.0 mi Calm Calm - N/A   Clear
7:56 AM 43.0 °F 40.3 °F 39.0 °F 86% 30.19 in 10.0 mi ESE 4.6 mph - N/A   Clear
8:56 AM 50.0 °F - 42.1 °F 74% 30.18 in 10.0 mi Variable 4.6 mph - N/A   Clear
9:56 AM 55.0 °F - 43.0 °F 64% 30.16 in 10.0 mi SSE 3.5 mph - N/A   Clear
10:56 AM 61.0 °F - 44.1 °F 54% 30.14 in 10.0 mi Variable 3.5 mph - N/A   Clear
11:56 AM 64.9 °F - 42.1 °F 43% 30.12 in 10.0 mi Variable 5.8 mph - N/A   Clear
12:56 PM 68.0 °F - 41.0 °F 37% 30.09 in 10.0 mi SE 3.5 mph - N/A   Clear
1:56 PM 70.0 °F - 39.0 °F 32% 30.07 in 10.0 mi NE 4.6 mph - N/A   Clear
2:56 PM 71.1 °F - 39.0 °F 31% 30.05 in 10.0 mi Variable 3.5 mph - N/A   Clear
3:56 PM 72.0 °F - 37.9 °F 29% 30.03 in 10.0 mi Calm Calm - N/A   Clear
4:56 PM 73.9 °F - 37.9 °F 27% 30.01 in 10.0 mi NNE 6.9 mph - N/A   Clear
5:56 PM 72.0 °F - 37.9 °F 29% 30.01 in 10.0 mi East 5.8 mph - N/A   Clear
6:56 PM 69.1 °F - 37.9 °F 32% 30.01 in 10.0 mi Calm Calm - N/A   Clear
7:56 PM 57.0 °F - 42.1 °F 57% 30.02 in 10.0 mi Calm Calm - N/A   Clear
8:56 PM 55.9 °F - 39.9 °F 55% 30.02 in 10.0 mi Calm Calm - N/A   Clear
9:56 PM 51.1 °F - 42.1 °F 71% 30.01 in 10.0 mi Calm Calm - N/A   Clear
10:56 PM 51.1 °F - 41.0 °F 68% 29.99 in 10.0 mi SSE 4.6 mph - N/A   Clear
11:56 PM 51.1 °F - 42.1 °F 71% 29.99 in 10.0 mi SSW 3.5 mph - N/A   Clear